Weather History for Fort Myers, FL

Change the Weather History Date:

Monday, November 5, 2012

  Actual Average Record
Temperature  
Mean Temperature 72 °F 74 °F  
Max Temperature 79 °F 83 °F 90 °F (1996)
Min Temperature 65 °F 64 °F 45 °F (1955)
Degree Days  
Heating Degree Days 0 0  
Month to date heating degree days 0 0  
Since 1 July heating degree days 3 2  
Cooling Degree Days 7 9  
Month to date cooling degree days 30 46  
Year to date cooling degree days 4130 3694  
Growing Degree Days 22 (Base 50)    
Moisture  
Dew Point 65 °F    
Average Humidity 80    
Maximum Humidity 93    
Minimum Humidity 62    
Precipitation  
Precipitation 0.00 in 0.08 in 2.97 in (1998)
Month to date precipitation 0.00 0.43  
Year to date precipitation 46.77 52.69  
Sea Level Pressure  
Sea Level Pressure 29.99 in    
Wind  
Wind Speed 3 mph (West)    
Max Wind Speed 10 mph    
Max Gust Speed 16 mph    
Visibility 9 miles    
Events      
T = Trace of Precipitation, MM = Missing Value Source: NWS Daily Summary

Daily Weather History Graph

Daily Weather History Graph

Search for Another Location

Airport:

Trip Planner

Search our weather history database for the weather conditions in past years. The results will help you decide how hot, cold, wet, or windy it might be!

Date:

Astronomy

Nov. 05, 2012 Rise Set
Actual Time 6:39 AM EST 5:41 PM EST
Civil Twilight 6:15 AM EST 6:05 PM EST
Nautical Twilight 5:48 AM EST 6:33 PM EST
Astronomical Twilight 5:20 AM EST 7:00 PM EST
Moon 11:17 PM EST (11/5) 11:57 AM EST (11/5)
Length of Visible Light 11h 50m
Length of Day
11h 02m
Waning Gibbous, 63% of the Moon is Illuminated
Nov 5
Waning Gibbous
Nov 6
Last Quarter
Nov 13
New
Nov 20
First Quarter
Nov 28
Full

Hourly Weather History & Observations

Time (EST) Temp. Dew Point Humidity Pressure Visibility Wind Dir Wind Speed Gust Speed Precip Events Conditions
12:53 AM 66.9 °F 64.0 °F 90% 30.02 in 8.0 mi Calm Calm - N/A   Clear
1:53 AM 66.9 °F 64.0 °F 90% 30.02 in 8.0 mi Calm Calm - N/A   Clear
2:53 AM 66.0 °F 64.0 °F 93% 30.01 in 5.0 mi SSE 3.5 mph - N/A   Clear
3:53 AM 66.9 °F 64.0 °F 90% 30.00 in 6.0 mi Calm Calm - N/A   Clear
4:53 AM 66.9 °F 64.0 °F 90% 30.00 in 5.0 mi Calm Calm - N/A   Clear
5:53 AM 66.9 °F 63.0 °F 87% 30.01 in 6.0 mi Calm Calm - N/A   Clear
7:53 AM 66.9 °F 64.9 °F 93% 30.03 in 4.0 mi Calm Calm - N/A   Clear
8:53 AM 69.1 °F 66.0 °F 90% 30.03 in 7.0 mi South 3.5 mph - N/A   Clear
9:53 AM 75.0 °F 66.0 °F 73% 30.02 in 10.0 mi Calm Calm - N/A   Clear
10:53 AM 75.9 °F 64.9 °F 69% 30.02 in 10.0 mi NW 4.6 mph - N/A   Scattered Clouds
11:53 AM 78.1 °F 64.0 °F 62% 30.00 in 10.0 mi Variable 3.5 mph - N/A   Mostly Cloudy
12:21 PM 77.0 °F 62.6 °F 61% 29.98 in 10.0 mi Variable 3.5 mph - N/A   Scattered Clouds
12:53 PM 77.0 °F 64.0 °F 64% 29.98 in 10.0 mi NW 5.8 mph - N/A   Mostly Cloudy
1:53 PM 75.9 °F 64.9 °F 69% 29.95 in 10.0 mi WSW 6.9 mph - N/A   Scattered Clouds
2:53 PM 75.9 °F 64.9 °F 69% 29.95 in 10.0 mi West 6.9 mph - N/A   Clear
3:53 PM 75.0 °F 64.9 °F 71% 29.94 in 10.0 mi West 8.1 mph - N/A   Overcast
4:21 PM 75.2 °F 64.4 °F 69% 29.93 in 10.0 mi West 6.9 mph - N/A   Scattered Clouds
4:53 PM 73.9 °F 66.0 °F 76% 29.95 in 10.0 mi SW 6.9 mph - N/A   Mostly Cloudy
5:53 PM 73.0 °F 66.0 °F 79% 29.96 in 10.0 mi West 6.9 mph - N/A   Mostly Cloudy
6:53 PM 72.0 °F 66.0 °F 81% 29.97 in 10.0 mi West 5.8 mph - N/A   Clear
7:53 PM 72.0 °F 66.0 °F 81% 29.98 in 10.0 mi Calm Calm - N/A   Clear
8:53 PM 71.1 °F 66.0 °F 84% 29.99 in 10.0 mi Calm Calm - N/A   Clear
9:53 PM 70.0 °F 66.0 °F 87% 29.98 in 10.0 mi Calm Calm - N/A   Clear
10:53 PM 70.0 °F 66.0 °F 87% 29.97 in 10.0 mi Calm Calm - N/A   Clear
11:53 PM 69.1 °F 66.0 °F 90% 29.95 in 10.0 mi Calm Calm - N/A   Clear